Location: Ponte Samoggia
(44.5667°N, 11.1333°E)
Time: 07:30:35
(UTC+00:00)

CZ-4C R/B - Visible Passes

Search period start: 06 October 2022 00:00
Search period end: 16 October 2022 00:00
Orbit: 574 x 1426 km, 63.4° (Epoch: 05 October)

Date Brightness Start Highest point End Pass type
(mag) Time Alt. Az. Time Alt. Az. Time Alt. Az.
10 Oct 4.6 04:17:39 10° SSE 04:20:43 18° ESE 04:24:07 10° ENE visible
11 Oct 3.2 04:48:58 10° S 04:53:18 44° ESE 04:58:33 10° NE visible
12 Oct 4.7 03:36:47 10° SE 03:39:03 13° ESE 03:41:29 10° ENE visible
13 Oct 3.5 04:07:24 10° S 04:11:32 34° ESE 04:16:26 10° NE visible
14 Oct 2.0 04:39:50 10° SSW 04:44:27 84° SE 04:50:11 10° NE visible
15 Oct 3.8 03:25:57 10° S 03:29:48 27° ESE 03:34:17 10° NE visible
